| time (UTC) | temp F | wind direction | speed MPH | gust MPH | rain 1hr in | rain 24hr in | rain mn in | humidity % | barometer mb |
| 20260903082037 | 85 | 166 | 3.0 | 8.0 | 0.00 | 0.00 | 0.00 | 30 | 1016.2 |
| 20260903080020 | 84 | 154 | 2.0 | 5.0 | 0.00 | 0.00 | 0.00 | 30 | 1016.2 |
| 20260903073520 | 84 | 120 | 2.0 | 3.0 | 0.00 | 0.00 | 0.00 | 30 | 1016.1 |
| 20260903073037 | 83 | 150 | 1.0 | 2.0 | 0.00 | 0.00 | 0.00 | 30 | 1016.2 |
| 20260903071521 | 83 | 195 | 1.0 | 3.0 | 0.00 | 0.00 | 0.00 | 31 | 1016.1 |
| 20260903064521 | 80 | 170 | 1.0 | 3.0 | 0.00 | 0.00 | 0.00 | 32 | 1016.2 |
| 20260903063520 | 79 | 195 | 2.0 | 5.0 | 0.00 | 0.00 | 0.00 | 34 | 1016.3 |
| 20260903061519 | 80 | 153 | 1.0 | 3.0 | 0.00 | 0.00 | 0.00 | 31 | 1016.2 |
| 20260903061035 | 80 | 145 | 1.0 | 3.0 | 0.00 | 0.00 | 0.00 | 31 | 1016.3 |
| 20260903060520 | 80 | 111 | 1.0 | 2.0 | 0.00 | 0.00 | 0.00 | 30 | 1016.2 |
| 20260903060020 | 80 | 83 | 0.0 | 3.0 | 0.00 | 0.00 | 0.00 | 31 | 1016.2 |
| 20260903054036 | 80 | 106 | 2.0 | 3.0 | 0.00 | 0.00 | 0.00 | 30 | 1016.1 |
| 20260903053519 | 79 | 81 | 2.0 | 3.0 | 0.00 | 0.00 | 0.00 | 30 | 1016.1 |
| 20260903053033 | 79 | 96 | 2.0 | 3.0 | 0.00 | 0.00 | 0.00 | 31 | 1016.0 |
| 20260903044519 | 75 | 228 | 2.0 | 3.0 | 0.00 | 0.00 | 0.00 | 33 | 1015.8 |
| 20260903044042 | 76 | 235 | 1.0 | 6.0 | 0.00 | 0.00 | 0.00 | 33 | 1015.6 |
| 20260903043035 | 76 | 262 | 3.0 | 6.0 | 0.00 | 0.00 | 0.00 | 31 | 1015.7 |
| 20260903042520 | 77 | 258 | 2.0 | 5.0 | 0.00 | 0.00 | 0.00 | 32 | 1015.7 |
| 20260903042036 | 77 | 295 | 2.0 | 3.0 | 0.00 | 0.00 | 0.00 | 31 | 1015.7 |
| 20260903041520 | 77 | 339 | 0.0 | 2.0 | 0.00 | 0.00 | 0.00 | 31 | 1015.7 |
| 20260903040519 | 77 | 21 | 2.0 | 3.0 | 0.00 | 0.00 | 0.00 | 31 | 1015.7 |
| 20260903040020 | 77 | 31 | 1.0 | 2.0 | 0.00 | 0.00 | 0.00 | 31 | 1015.7 |
| 20260903034027 | 76 | 104 | 1.0 | 2.0 | 0.00 | 0.00 | 0.00 | 31 | 1015.6 |
| 20260903032027 | 76 | 268 | 2.0 | 2.0 | 0.00 | 0.00 | 0.00 | 32 | 1015.7 |
| 20260903030520 | 76 | 354 | 2.0 | 6.0 | 0.00 | 0.00 | 0.00 | 33 | 1015.7 |
| 20260903025520 | 77 | 266 | 2.0 | 6.0 | 0.00 | 0.00 | 0.00 | 32 | 1015.7 |
| 20260903023519 | 77 | 244 | 2.0 | 3.0 | 0.00 | 0.00 | 0.00 | 32 | 1015.9 |
| 20260903021519 | 76 | 269 | 2.0 | 5.0 | 0.00 | 0.00 | 0.00 | 33 | 1015.8 |
| 20260903021027 | 75 | 268 | 1.0 | 3.0 | 0.00 | 0.00 | 0.00 | 34 | 1015.9 |
| 20260903020519 | 75 | 272 | 2.0 | 3.0 | 0.00 | 0.00 | 0.00 | 35 | 1015.9 |
| 20260903020019 | 75 | 256 | 2.0 | 3.0 | 0.00 | 0.00 | 0.00 | 36 | 1015.9 |
| 20260903015519 | 75 | 252 | 2.0 | 3.0 | 0.00 | 0.00 | 0.00 | 38 | 1015.9 |
| 20260903013519 | 74 | 266 | 2.0 | 3.0 | 0.00 | 0.00 | 0.00 | 45 | 1016.0 |
| 20260903013028 | 74 | 282 | 2.0 | 3.0 | 0.00 | 0.00 | 0.00 | 51 | 1016.0 |
| 20260903012518 | 74 | 265 | 1.0 | 3.0 | 0.00 | 0.00 | 0.00 | 54 | 1016.1 |
| 20260903005027 | 73 | 272 | 2.0 | 3.0 | 0.00 | 0.00 | 0.00 | 58 | 1016.4 |
| 20260903004027 | 73 | 293 | 2.0 | 3.0 | 0.00 | 0.00 | 0.00 | 65 | 1016.5 |
| 20260903003519 | 73 | 258 | 2.0 | 5.0 | 0.00 | 0.00 | 0.00 | 67 | 1016.5 |
| 20260903002521 | 73 | 276 | 2.0 | 3.0 | 0.00 | 0.00 | 0.00 | 68 | 1016.5 |
| 20260902235519 | 75 | 281 | 1.0 | 3.0 | 0.00 | 0.00 | 0.00 | 67 | 1016.6 |
| 20260902234519 | 75 | 66 | 1.0 | 3.0 | 0.00 | 0.00 | 0.00 | 69 | 1016.7 |
| 20260902234027 | 75 | 117 | 2.0 | 3.0 | 0.00 | 0.00 | 0.00 | 69 | 1016.7 |
| 20260902232520 | 75 | 293 | 0.0 | 2.0 | 0.00 | 0.00 | 0.00 | 68 | 1017.0 |
| 20260902225027 | 76 | 343 | 1.0 | 3.0 | 0.00 | 0.00 | 0.00 | 67 | 1017.2 |
| 20260902224027 | 76 | 180 | 1.0 | 3.0 | 0.00 | 0.00 | 0.00 | 67 | 1017.3 |
| 20260902223027 | 76 | 77 | 1.0 | 3.0 | 0.00 | 0.00 | 0.00 | 66 | 1017.3 |
| 20260902221027 | 76 | 49 | 2.0 | 3.0 | 0.00 | 0.00 | 0.00 | 66 | 1017.4 |
| 20260902220518 | 76 | 45 | 2.0 | 3.0 | 0.00 | 0.00 | 0.00 | 66 | 1017.4 |
| 20260902220020 | 76 | 72 | 2.0 | 3.0 | 0.00 | 0.00 | 0.00 | 65 | 1017.4 |
| 20260902215519 | 76 | 116 | 2.0 | 3.0 | 0.00 | 0.00 | 0.00 | 65 | 1017.4 |
| 20260902214027 | 77 | 83 | 2.0 | 3.0 | 0.00 | 0.00 | 0.00 | 64 | 1017.4 |
| 20260902213518 | 77 | 62 | 2.0 | 3.0 | 0.00 | 0.00 | 0.00 | 63 | 1017.4 |
| 20260902213028 | 77 | 29 | 1.0 | 2.0 | 0.00 | 0.00 | 0.00 | 62 | 1017.5 |
| 20260902205520 | 77 | 340 | 1.0 | 2.0 | 0.00 | 0.00 | 0.00 | 58 | 1017.4 |
| 20260902204518 | 77 | 54 | 2.0 | 3.0 | 0.00 | 0.00 | 0.00 | 58 | 1017.4 |
| 20260902203519 | 78 | 60 | 2.0 | 5.0 | 0.00 | 0.00 | 0.00 | 57 | 1017.5 |
| 20260902203027 | 78 | 64 | 2.0 | 5.0 | 0.00 | 0.00 | 0.00 | 56 | 1017.4 |
| 20260902201519 | 78 | 58 | 5.0 | 9.0 | 0.00 | 0.00 | 0.00 | 55 | 1017.3 |
| 20260902200518 | 78 | 53 | 2.0 | 6.0 | 0.00 | 0.00 | 0.00 | 53 | 1017.4 |
| 20260902200018 | 78 | 57 | 1.0 | 3.0 | 0.00 | 0.00 | 0.00 | 53 | 1017.4 |
| 20260902195026 | 78 | 73 | 2.0 | 3.0 | 0.00 | 0.00 | 0.00 | 52 | 1017.5 |
| 20260902194026 | 78 | 73 | 1.0 | 3.0 | 0.00 | 0.00 | 0.00 | 52 | 1017.4 |
| 20260902193519 | 78 | 73 | 2.0 | 3.0 | 0.00 | 0.00 | 0.00 | 53 | 1017.4 |
| 20260902191518 | 78 | 59 | 2.0 | 3.0 | 0.00 | 0.00 | 0.00 | 60 | 1017.4 |
| 20260902191027 | 78 | 70 | 2.0 | 3.0 | 0.00 | 0.00 | 0.00 | 61 | 1017.3 |
| 20260902190518 | 78 | 62 | 1.0 | 3.0 | 0.00 | 0.00 | 0.00 | 62 | 1017.2 |
| 20260902190019 | 78 | 81 | 1.0 | 3.0 | 0.00 | 0.00 | 0.00 | 62 | 1017.2 |
| 20260902185027 | 78 | 312 | 1.0 | 2.0 | 0.00 | 0.00 | 0.00 | 62 | 1017.0 |
| 20260902184518 | 78 | 280 | 1.0 | 2.0 | 0.00 | 0.00 | 0.00 | 62 | 1016.9 |
| 20260902183518 | 78 | 268 | 1.0 | 3.0 | 0.00 | 0.00 | 0.00 | 61 | 1016.8 |
| 20260902182029 | 79 | 289 | 3.0 | 7.0 | 0.00 | 0.00 | 0.00 | 60 | 1016.7 |
| 20260902180518 | 79 | 275 | 2.0 | 3.0 | 0.00 | 0.00 | 0.00 | 58 | 1016.4 |
| 20260902175518 | 80 | 286 | 3.0 | 6.0 | 0.00 | 0.00 | 0.00 | 57 | 1016.4 |
| 20260902173519 | 81 | 240 | 3.0 | 9.0 | 0.00 | 0.00 | 0.00 | 52 | 1016.1 |
| 20260902172518 | 81 | 256 | 7.0 | 12.0 | 0.00 | 0.00 | 0.00 | 48 | 1016.2 |
| 20260902171519 | 82 | 222 | 5.0 | 10.0 | 0.00 | 0.00 | 0.00 | 45 | 1016.1 |
| 20260902170019 | 83 | 253 | 5.0 | 12.0 | 0.00 | 0.00 | 0.00 | 41 | 1016.0 |
| 20260902164518 | 84 | 354 | 8.0 | 15.0 | 0.00 | 0.00 | 0.00 | 39 | 1015.9 |
| 20260902162520 | 85 | 231 | 9.0 | 15.0 | 0.00 | 0.00 | 0.00 | 36 | 1016.0 |
| 20260902161519 | 85 | 279 | 7.0 | 13.0 | 0.00 | 0.00 | 0.00 | 37 | 1016.0 |
| 20260902155520 | 86 | 246 | 9.0 | 16.0 | 0.00 | 0.00 | 0.00 | 36 | 1016.1 |
| 20260902154037 | 87 | 252 | 8.0 | 17.0 | 0.00 | 0.00 | 0.00 | 39 | 1016.1 |
| 20260902153036 | 87 | 207 | 10.0 | 17.0 | 0.00 | 0.00 | 0.00 | 40 | 1016.2 |
| 20260902152038 | 88 | 258 | 7.0 | 15.0 | 0.00 | 0.00 | 0.00 | 39 | 1016.3 |
| 20260902151520 | 89 | 241 | 5.0 | 12.0 | 0.00 | 0.00 | 0.00 | 37 | 1016.3 |
| 20260902150518 | 88 | 235 | 10.0 | 17.0 | 0.00 | 0.00 | 0.00 | 36 | 1016.3 |
| 20260902150019 | 88 | 219 | 7.0 | 18.0 | 0.00 | 0.00 | 0.00 | 35 | 1016.3 |
| 20260902145037 | 88 | 229 | 10.0 | 16.0 | 0.00 | 0.00 | 0.00 | 35 | 1016.3 |
| 20260902144519 | 89 | 224 | 7.0 | 16.0 | 0.00 | 0.00 | 0.00 | 35 | 1016.3 |
| 20260902142519 | 88 | 203 | 10.0 | 16.0 | 0.00 | 0.00 | 0.00 | 37 | 1016.3 |
| 20260902142038 | 88 | 254 | 9.0 | 14.0 | 0.00 | 0.00 | 0.00 | 38 | 1016.3 |
| 20260902141039 | 89 | 226 | 9.0 | 18.0 | 0.00 | 0.00 | 0.00 | 39 | 1016.3 |
| 20260902135518 | 89 | 216 | 10.0 | 16.0 | 0.00 | 0.00 | 0.00 | 38 | 1016.3 |
| 20260902134038 | 90 | 238 | 6.0 | 16.0 | 0.00 | 0.00 | 0.00 | 37 | 1016.6 |
| 20260902132038 | 90 | 243 | 6.0 | 13.0 | 0.00 | 0.00 | 0.00 | 33 | 1016.7 |
| 20260902130524 | 91 | 239 | 6.0 | 14.0 | 0.00 | 0.00 | 0.00 | 34 | 1016.7 |
| 20260902125519 | 90 | 222 | 9.0 | 14.0 | 0.00 | 0.00 | 0.00 | 33 | 1016.8 |
| 20260902125037 | 90 | 165 | 6.0 | 15.0 | 0.00 | 0.00 | 0.00 | 34 | 1016.9 |
| 20260902124036 | 92 | 227 | 10.0 | 18.0 | 0.00 | 0.00 | 0.00 | 33 | 1016.9 |
| 20260902123036 | 92 | 267 | 5.0 | 9.0 | 0.00 | 0.00 | 0.00 | 22 | 1017.0 |
| 20260902122518 | 93 | 302 | 3.0 | 10.0 | 0.00 | 0.00 | 0.00 | 23 | 1017.0 |
| 20260902121518 | 91 | 114 | 2.0 | 8.0 | 0.00 | 0.00 | 0.00 | 25 | 1017.1 |
| 20260902120519 | 91 | 258 | 2.0 | 10.0 | 0.00 | 0.00 | 0.00 | 24 | 1017.2 |
| 20260902120020 | 91 | 208 | 4.0 | 12.0 | 0.00 | 0.00 | 0.00 | 25 | 1017.2 |
| 20260902115519 | 92 | 176 | 4.0 | 7.0 | 0.00 | 0.00 | 0.00 | 25 | 1017.3 |
| 20260902115036 | 92 | 284 | 2.0 | 6.0 | 0.00 | 0.00 | 0.00 | 26 | 1017.4 |
| 20260902113518 | 91 | 168 | 2.0 | 3.0 | 0.00 | 0.00 | 0.00 | 27 | 1017.6 |
| 20260902113037 | 91 | 12 | 2.0 | 3.0 | 0.00 | 0.00 | 0.00 | 27 | 1017.7 |
| 20260902112518 | 90 | 24 | 3.0 | 5.0 | 0.00 | 0.00 | 0.00 | 27 | 1017.7 |
| 20260902112037 | 91 | 316 | 2.0 | 3.0 | 0.00 | 0.00 | 0.00 | 26 | 1017.8 |
| 20260902111518 | 90 | 257 | 4.0 | 7.0 | 0.00 | 0.00 | 0.00 | 26 | 1017.9 |
| 20260902111037 | 90 | 316 | 1.0 | 3.0 | 0.00 | 0.00 | 0.00 | 27 | 1017.9 |
| 20260902110518 | 89 | 37 | 1.0 | 3.0 | 0.00 | 0.00 | 0.00 | 28 | 1018.0 |
| 20260902110021 | 89 | 29 | 2.0 | 9.0 | 0.00 | 0.00 | 0.00 | 27 | 1018.0 |
| 20260902105038 | 88 | 10 | 3.0 | 5.0 | 0.00 | 0.00 | 0.00 | 28 | 1018.1 |
| 20260902104037 | 89 | 253 | 1.0 | 5.0 | 0.00 | 0.00 | 0.00 | 29 | 1018.1 |
| 20260902103038 | 88 | 64 | 2.0 | 3.0 | 0.00 | 0.00 | 0.00 | 30 | 1018.1 |
| 20260902102518 | 88 | 91 | 4.0 | 9.0 | 0.00 | 0.00 | 0.00 | 30 | 1018.2 |
| 20260902101037 | 87 | 85 | 3.0 | 8.0 | 0.00 | 0.00 | 0.00 | 31 | 1018.3 |
| 20260902100518 | 87 | 14 | 2.0 | 5.0 | 0.00 | 0.00 | 0.00 | 30 | 1018.4 |
| 20260902100018 | 88 | 72 | 4.0 | 8.0 | 0.00 | 0.00 | 0.00 | 31 | 1018.4 |
| 20260902095519 | 87 | 14 | 2.0 | 5.0 | 0.00 | 0.00 | 0.00 | 32 | 1018.4 |
| 20260902094037 | 87 | 29 | 2.0 | 8.0 | 0.00 | 0.00 | 0.00 | 33 | 1018.4 |
| 20260902092518 | 86 | 116 | 3.0 | 5.0 | 0.00 | 0.00 | 0.00 | 35 | 1018.4 |
| 20260902092037 | 86 | 54 | 1.0 | 7.0 | 0.00 | 0.00 | 0.00 | 36 | 1018.4 |
| 20260902090519 | 85 | 133 | 1.0 | 3.0 | 0.00 | 0.00 | 0.00 | 38 | 1018.4 |
| 20260902090018 | 85 | 84 | 2.0 | 6.0 | 0.00 | 0.00 | 0.00 | 37 | 1018.4 |
| 20260902085037 | 85 | 119 | 3.0 | 8.0 | 0.00 | 0.00 | 0.00 | 36 | 1018.3 |
| 20260902084037 | 84 | 191 | 3.0 | 7.0 | 0.00 | 0.00 | 0.00 | 39 | 1018.3 |
| 20260902083518 | 84 | 99 | 2.0 | 6.0 | 0.00 | 0.00 | 0.00 | 39 | 1018.2 |
| 20260902083037 | 84 | 95 | 4.0 | 7.0 | 0.00 | 0.00 | 0.00 | 40 | 1018.2 |